[[{"header":{"parameterUnit":"m.s-1","parameterCategory":1,"la1":30.2991,"la2":30.254,"lo1":-89.0895,"lo2":-89.0444,"dy":0.0017,"dx":0.0017,"nx":28,"ny":28,"refTime":"2024-06-11T09:00:00:Z","depth":0,"parameterNumber":2,"parameterNumberName":"U-component_of_WINDS"},"data":[0,0,0,0,0,0,0,0,0,0,0,0,0,0,0,0,0,0,0,0,0,0,0,0,0,0,0,0,0,0,0,0,0,0,0,0,0,0,0,0,0,0,0,0,0,0,0,0,0,0,0,0,0,0,0,0,0,0,-3.2097,-3.2097,0,-3.2133,-3.2134,-3.2134,-3.1999,-3.1995,-3.1991,-3.1987,-3.2028,-3.2033,-3.2037,0,0,0,0,0,0,0,0,0,0,0,0,0,-3.1912,-3.1916,-3.2097,-3.2097,-3.2098,-3.2133,-3.2134,-3.2134,-3.2,-3.1995,-3.199,-3.1986,-3.2026,-3.2032,-3.2038,0,0,0,0,0,0,0,0,0,0,0,0,0,-3.1975,-3.1917,-3.2097,-3.2035,-3.203,-3.2133,-3.2134,-3.2134,-3.2001,-3.1995,-3.1989,-3.1983,-3.2024,-3.2031,-3.2039,-3.2204,0,0,-3.2061,-3.2064,0,0,0,0,0,0,0,0,-3.1971,-3.1982,-3.2043,-3.2039,-3.2034,-3.2055,-3.2083,-3.2158,-3.2003,-3.2012,-3.1987,-3.198,-3.2042,-3.2048,-3.2068,-3.2206,-3.2208,-3.2061,-3.2066,-3.2069,-3.2071,0,0,0,0,0,0,0,-3.1967,-3.1979,-3.2111,-3.2045,-3.2039,-3.2006,-3.2008,-3.2097,-3.2061,-3.2011,-3.2001,-3.2007,-3.2038,-3.2061,-3.2068,-3.2208,-3.2061,-3.2068,-3.2072,-3.2075,-3.2483,-3.2489,0,0,0,0,0,0,-3.197,-3.1976,-3.211,-3.2112,-3.1987,-3.2014,-3.2016,-3.2055,-3.2059,-3.2054,-3.2012,-3.2001,-3.2052,-3.2059,-3.2069,-3.2262,-3.2069,-3.2076,-3.208,-3.2476,-3.2484,-3.2491,0,0,0,0,0,0,-3.1967,-3.1984,-3.2108,-3.2042,-3.2055,-3.2023,-3.2067,-3.2059,-3.2081,-3.206,-3.2053,-3.2042,-3.2047,-3.2058,-3.2171,-3.2262,-3.2079,-3.2085,-3.2469,-3.2479,-3.2488,-3.2652,0,0,0,0,0,0,-3.1962,-3.1983,-3.2046,-3.2044,-3.2059,-3.2211,-3.2073,-3.2064,-3.2094,-3.2079,-3.2087,-3.2082,-3.2043,-3.2161,-3.2178,-3.2269,-3.2091,-3.246,-3.2473,-3.2485,-3.2639,-3.2666,-3.269,0,0,0,0,0,-3.1956,-3.2092,-3.205,-3.2067,-3.2137,-3.2216,-3.2225,-3.2177,-3.2102,-3.2164,-3.215,-3.2082,-3.2249,-3.2174,-3.2192,-3.2286,-3.2455,-3.247,-3.2484,-3.2627,-3.2661,-3.269,0,0,0,0,0,0,-3.2106,-3.209,-3.2044,-3.2182,-3.2202,-3.2193,-3.2271,-3.2214,-3.2256,-3.2241,-3.218,-3.2183,-3.2306,-3.2307,-3.2223,-3.2446,-3.2339,-3.2358,-3.2441,-3.2473,-3.2499,-3.2497,-3.2097,0,0,0,0,0,-3.2155,-3.2221,-3.2203,-3.2327,-3.2339,-3.2304,-3.2337,-3.2297,-3.2315,-3.2323,-3.2317,-3.2338,-3.2394,-3.2434,-3.2485,-3.2637,-3.2637,-3.271,-3.2736,-3.2758,-3.2775,-3.2856,-3.2888,-3.2539,-3.2539,-3.2539,0,0,-3.2258,-3.2257,-3.2303,-3.2357,-3.2368,-3.2437,-3.2312,-3.2391,-3.2442,-3.2335,-3.2441,-3.2438,-3.2456,-3.2589,-3.2648,-3.2594,-3.2871,-3.2776,-3.2793,-3.28,-3.2874,-3.2907,-3.2937,-3.2549,-3.2547,-3.2546,0,0,-3.2481,-3.2486,-3.259,-3.2602,-3.2619,-3.2594,-3.2619,-3.2619,-3.2612,-3.2717,-3.2638,-3.2697,-3.2797,-3.2813,-3.2835,-3.3061,-3.2999,-3.3079,-3.3215,-3.3294,-3.3321,-3.3345,-3.3427,-3.3456,-3.3096,-3.3097,-3.3097,0,-3.2607,-3.2708,-3.2651,-3.2735,-3.2762,-3.2666,-3.2771,-3.2786,-3.2819,-3.2839,-3.2778,-3.2899,-3.2905,-3.304,-3.3095,-3.3116,-3.3142,-3.3079,-3.3321,-3.3345,-3.3367,-3.3444,-3.3474,-3.3106,-3.3105,-3.3104,-3.3103,0,-3.2862,-3.2933,-3.3015,-3.3048,-3.3083,-3.3177,-3.3135,-3.3177,-3.3134,-3.3116,-3.3224,-3.3227,-3.3277,-3.3305,-3.3265,-3.3435,-3.3401,-3.3332,-3.3223,-3.3411,-3.3482,-3.3511,-3.312,-3.3117,-3.3114,-3.3111,0,0,-3.3183,-3.3181,-3.3213,-3.3226,-3.3236,-3.329,-3.3379,-3.3426,-3.3464,-3.3489,-3.3563,-3.3648,-3.3583,-3.3607,-3.3567,-3.3637,-3.3816,-3.3558,-3.3558,-3.3607,-3.4004,-3.4057,-3.4092,-3.3774,-3.3779,-3.3783,-3.4002,0,-3.3402,-3.3555,-3.3505,-3.366,-3.3725,-3.3634,-3.3711,-3.3726,-3.3711,-3.3764,-3.3746,-3.3808,-3.3717,-3.3731,-3.3795,-3.3781,-3.3895,-3.3764,-3.3843,-3.3847,-3.3843,-3.4129,-3.4186,-3.4393,-3.403,-3.4034,-3.4038,0,-3.368,-3.3714,-3.3875,-3.3873,-3.3898,-3.3969,-3.4008,-3.4059,-3.4073,-3.4057,-3.4083,-3.4028,-3.4115,-3.4005,-3.4125,-3.4037,-3.4065,-3.4063,-3.407,-3.4077,-3.3955,-3.4146,-3.4458,-3.4489,-3.4081,-3.4077,-3.4074,0,-3.3899,-3.3986,-3.4093,-3.4107,-3.4107,-3.4158,-3.4161,-3.4169,-3.42,-3.4234,-3.4253,-3.4297,-3.4322,-3.4357,-3.4315,-3.4239,-3.4442,-3.4328,-3.4431,-3.4433,-3.448,-3.4478,-3.4803,-3.4496,-3.4496,-3.4495,-3.4495,0,-3.415,-3.4253,-3.4191,-3.4258,-3.4369,-3.4311,-3.4423,-3.4415,-3.4422,-3.4486,-3.4409,-3.447,-3.441,-3.4466,-3.4433,-3.4538,-3.4549,-3.4539,-3.453,-3.4547,-3.4549,-3.4567,-3.4552,-3.4503,-3.4502,-3.45,-3.4499,0,-3.4416,-3.4379,-3.449,-3.4479,-3.4479,-3.4562,-3.4553,-3.4614,-3.4591,-3.4672,-3.4688,-3.4654,-3.4715,-3.4676,-3.4738,-3.4716,-3.4852,-3.4822,-3.4848,-3.484,-3.4947,-3.4938,-3.5296,-3.534,-3.5004,-3.5007,-3.501,0,-3.458,-3.4656,-3.4653,-3.4689,-3.4696,-3.4756,-3.4787,-3.4731,-3.4767,-3.4787,-3.4846,-3.49,-3.4941,-3.5042,-3.5024,-3.507,-3.5042,-3.5164,-3.5048,-3.5063,-3.5045,-3.5041,-3.5049,-3.5188,-3.5192,-3.5195,-3.5198,0,-3.4875,-3.4852,-3.4899,-3.494,-3.4978,-3.5008,-3.5031,-3.5066,-3.501,-3.5053,-3.5114,-3.5145,-3.5207,-3.5263,-3.5301,-3.5303,-3.5243,-3.5234,-3.526,-3.528,-3.5292,-3.5288,-3.4913,-3.5226,-3.5224,-3.5221,-3.522,-3.5219,-3.5095,-3.5158,-3.5166,-3.522,-3.5231,-3.5255,-3.5311,-3.5295,-3.5345,-3.539,-3.5354,-3.5427,-3.5437,-3.5483,-3.5493,-3.5549,-3.5499,-3.5538,-3.5548,-3.5558,-3.5574,-3.5281,-3.5555,-3.5554,-3.5554,-3.5553,-3.5552,0,-3.5387,-3.5386,-3.5437,-3.5471,-3.5514,-3.545,-3.5472,-3.5513,-3.5577,-3.5592,-3.5633,-3.5702,-3.5754,-3.5739,-3.5785,-3.5833,-3.5806,-3.5847,-3.5844,-3.5846,-3.5615,-3.5588,-3.5868,-3.5868,-3.5868,-3.5868,-3.5868,-3.5868,-3.5544,-3.5647,-3.5625,-3.5733,-3.5732,-3.5802,-3.582,-3.5841,-3.5852,-3.5933,-3.5975,-3.5964,-3.5966,-3.6012,-3.6057,-3.6051,-3.6072,-3.6124,-3.6108,-3.5893,-3.5862,-3.5832,-3.5807,-3.6129,-3.6129,-3.6334,-3.6336,-3.6338]},{"header":{"parameterUnit":"m.s-1","parameterCategory":1,"la1":30.2991,"la2":30.254,"lo1":-89.0895,"lo2":-89.0444,"dy":0.0017,"dx":0.0017,"nx":28,"ny":28,"refTime":"2024-06-11T09:00:00:Z","depth":0,"parameterNumber":3,"parameterNumberName":"V-component_of_WINDS"},"data":[0,0,0,0,0,0,0,0,0,0,0,0,0,0,0,0,0,0,0,0,0,0,0,0,0,0,0,0,0,0,0,0,0,0,0,0,0,0,0,0,0,0,0,0,0,0,0,0,0,0,0,0,0,0,0,0,0,0,-3.7391,-3.7391,0,-3.7451,-3.7451,-3.7452,-3.7413,-3.7411,-3.7409,-3.7407,-3.7465,-3.7468,-3.7472,0,0,0,0,0,0,0,0,0,0,0,0,0,-3.7236,-3.7239,-3.739,-3.7391,-3.7392,-3.7451,-3.7452,-3.7452,-3.7413,-3.7411,-3.7408,-3.7406,-3.7464,-3.7468,-3.7472,0,0,0,0,0,0,0,0,0,0,0,0,0,-3.7301,-3.724,-3.739,-3.7379,-3.7379,-3.7451,-3.7452,-3.7453,-3.7413,-3.7411,-3.7408,-3.7405,-3.7463,-3.7468,-3.7472,-3.7557,0,0,-3.7487,-3.7489,0,0,0,0,0,0,0,0,-3.7297,-3.7306,-3.738,-3.738,-3.738,-3.7421,-3.7418,-3.7487,-3.7414,-3.74,-3.7407,-3.7404,-3.7453,-3.7458,-3.7475,-3.756,-3.7562,-3.7488,-3.7491,-3.7493,-3.7494,0,0,0,0,0,0,0,-3.7293,-3.7303,-3.7414,-3.7381,-3.7381,-3.737,-3.7376,-3.7431,-3.7441,-3.7401,-3.7399,-3.7406,-3.7452,-3.7471,-3.7476,-3.7563,-3.7488,-3.7492,-3.7495,-3.7497,-3.7717,-3.772,0,0,0,0,0,0,-3.729,-3.73,-3.7412,-3.7416,-3.7331,-3.7375,-3.7382,-3.7411,-3.744,-3.7442,-3.7409,-3.7404,-3.7464,-3.7471,-3.7478,-3.7577,-3.7493,-3.7497,-3.75,-3.7714,-3.7717,-3.7721,0,0,0,0,0,0,-3.7286,-3.73,-3.741,-3.7357,-3.737,-3.7381,-3.7413,-3.7413,-3.7432,-3.7446,-3.7447,-3.7426,-3.7462,-3.7471,-3.7537,-3.7579,-3.7499,-3.7504,-3.771,-3.7715,-3.7719,-3.7777,0,0,0,0,0,0,-3.7282,-3.7299,-3.7333,-3.7358,-3.7373,-3.747,-3.7416,-3.7417,-3.7441,-3.7436,-3.7463,-3.7464,-3.7461,-3.753,-3.7542,-3.7584,-3.7508,-3.7707,-3.7712,-3.7718,-3.7772,-3.7783,-3.7793,0,0,0,0,0,-3.7277,-3.7346,-3.7334,-3.7348,-3.7416,-3.7472,-3.748,-3.7476,-3.7445,-3.7477,-3.7486,-3.7464,-3.7573,-3.7537,-3.755,-3.7595,-3.7704,-3.7711,-3.7717,-3.7767,-3.7781,-3.7793,0,0,0,0,0,0,-3.7324,-3.7349,-3.7337,-3.7417,-3.7443,-3.7465,-3.7506,-3.7491,-3.7525,-3.7519,-3.751,-3.7516,-3.7585,-3.7596,-3.7557,-3.7676,-3.7633,-3.7643,-3.7667,-3.768,-3.769,-3.7686,-3.7512,0,0,0,0,0,-3.7344,-3.7389,-3.7408,-3.7477,-3.7491,-3.7497,-3.7521,-3.7515,-3.7541,-3.7551,-3.7565,-3.7589,-3.7629,-3.7655,-3.7693,-3.7773,-3.7777,-3.781,-3.7821,-3.7829,-3.7837,-3.7879,-3.7893,-3.7742,-3.7742,-3.7742,0,0,-3.7385,-3.7405,-3.7433,-3.7487,-3.7506,-3.7551,-3.7506,-3.7556,-3.7589,-3.7558,-3.7621,-3.7632,-3.7659,-3.7732,-3.7765,-3.7744,-3.788,-3.7838,-3.7844,-3.7848,-3.7887,-3.7901,-3.7914,-3.7747,-3.7746,-3.7745,0,0,-3.7483,-3.7503,-3.7562,-3.7582,-3.7612,-3.7615,-3.763,-3.7655,-3.7661,-3.7724,-3.7701,-3.774,-3.7809,-3.7828,-3.7847,-3.7951,-3.7931,-3.7964,-3.8019,-3.8059,-3.8071,-3.8082,-3.8117,-3.813,-3.7972,-3.7972,-3.7972,0,-3.753,-3.7599,-3.7594,-3.7645,-3.7668,-3.7644,-3.7702,-3.7722,-3.7762,-3.7778,-3.7754,-3.7839,-3.7855,-3.7932,-3.7957,-3.7974,-3.7988,-3.796,-3.807,-3.8081,-3.809,-3.8124,-3.8137,-3.7976,-3.7975,-3.7975,-3.7974,0,-3.7654,-3.7702,-3.7745,-3.7786,-3.7814,-3.7869,-3.787,-3.7899,-3.789,-3.7895,-3.7959,-3.7978,-3.8018,-3.8036,-3.8028,-3.8111,-3.8096,-3.8072,-3.8028,-3.8108,-3.814,-3.8153,-3.7981,-3.7979,-3.7978,-3.7977,0,0,-3.7783,-3.782,-3.7836,-3.7853,-3.7884,-3.792,-3.7973,-3.8013,-3.8037,-3.8065,-3.8107,-3.8166,-3.8143,-3.8164,-3.8158,-3.8194,-3.8273,-3.8164,-3.8165,-3.8183,-3.8363,-3.8381,-3.8396,-3.826,-3.8263,-3.8265,-3.836,0,-3.7882,-3.7975,-3.7971,-3.8058,-3.81,-3.8077,-3.8123,-3.8146,-3.8152,-3.8187,-3.8193,-3.8234,-3.8202,-3.8214,-3.8249,-3.8256,-3.8309,-3.8249,-3.8298,-3.83,-3.8291,-3.8413,-3.8432,-3.8521,-3.8373,-3.8375,-3.8377,0,-3.8009,-3.8042,-3.8133,-3.8157,-3.8174,-3.8216,-3.8251,-3.8286,-3.8311,-3.8313,-3.8337,-3.8324,-3.8375,-3.8331,-3.84,-3.836,-3.8379,-3.8385,-3.8389,-3.8392,-3.8342,-3.8418,-3.855,-3.8563,-3.8396,-3.8395,-3.8393,0,-3.8092,-3.816,-3.8222,-3.8238,-3.8267,-3.8296,-3.831,-3.8332,-3.8356,-3.8386,-3.8401,-3.8437,-3.8456,-3.8483,-3.848,-3.8448,-3.855,-3.8506,-3.8551,-3.8551,-3.8572,-3.8571,-3.8708,-3.8588,-3.8587,-3.8587,-3.8587,0,-3.8202,-3.8258,-3.826,-3.8298,-3.836,-3.8354,-3.8415,-3.8424,-3.8444,-3.8483,-3.8465,-3.8501,-3.8495,-3.8531,-3.8528,-3.8585,-3.8594,-3.8595,-3.8594,-3.8596,-3.8596,-3.8608,-3.8601,-3.8591,-3.859,-3.8589,-3.8589,0,-3.8305,-3.8309,-3.8375,-3.8397,-3.8404,-3.8448,-3.8466,-3.8501,-3.8506,-3.8555,-3.8566,-3.8572,-3.8613,-3.8612,-3.8659,-3.8657,-3.8726,-3.8718,-3.8718,-3.8716,-3.8761,-3.8756,-3.8909,-3.8928,-3.8797,-3.8798,-3.8799,0,-3.8374,-3.8416,-3.8443,-3.8468,-3.8483,-3.8524,-3.8548,-3.8544,-3.8569,-3.86,-3.8631,-3.8671,-3.8702,-3.8768,-3.8776,-3.8811,-3.8802,-3.8854,-3.8807,-3.8808,-3.8801,-3.8798,-3.8801,-3.8862,-3.8864,-3.8865,-3.8866,0,-3.8495,-3.8495,-3.8531,-3.8568,-3.8598,-3.8626,-3.8652,-3.8674,-3.8672,-3.8701,-3.8743,-3.8768,-3.8815,-3.8854,-3.8887,-3.8899,-3.8881,-3.8881,-3.8892,-3.8895,-3.8892,-3.8892,-3.8741,-3.8877,-3.8876,-3.8875,-3.8874,-3.8874,-3.8582,-3.8618,-3.8642,-3.8683,-3.8702,-3.8727,-3.8761,-3.877,-3.8805,-3.8844,-3.8839,-3.8886,-3.8907,-3.8951,-3.8965,-3.9,-3.8982,-3.9,-3.9004,-3.9008,-3.9012,-3.8888,-3.9006,-3.9006,-3.9006,-3.9005,-3.9005,0,-3.8701,-3.8715,-3.8753,-3.879,-3.8822,-3.8804,-3.8832,-3.8859,-3.8901,-3.8923,-3.8954,-3.9001,-3.9038,-3.9049,-3.9084,-3.911,-3.9103,-3.9119,-3.9117,-3.9119,-3.9027,-3.9013,-3.9124,-3.9124,-3.9124,-3.9124,-3.9124,-3.9124,-3.8766,-3.8826,-3.8828,-3.8897,-3.891,-3.8957,-3.8974,-3.8996,-3.9013,-3.9067,-3.9098,-3.9106,-3.9122,-3.9159,-3.9191,-3.9193,-3.9206,-3.9225,-3.9224,-3.9138,-3.9126,-3.9114,-3.91,-3.9229,-3.9229,-3.9313,-3.9313,-3.9314]}]]